Regional Weather Roundup
Issued by NWS Goodland, KS

Home | Current Version | Previous Version | Text Only | Print | Product List | Glossary On
Versions: 1 2 3 4 5 6 7 8 9 10 11 12 13 14 15 16 17 18 19 20 21 22 23 24 25 26 27 28 29 30 31 32 33 34 35 36 37 38 39 40 41 42 43 44 45 46 47 48 49 50
000
ASUS43 KGLD 181108
RWRGLD

GOODLAND FORECAST AREA HOURLY WEATHER ROUNDUP
NATIONAL WEATHER SERVICE GOODLAND KS
400 AM MST WED JAN 18 2017

...OFFICIAL OBSERVATIONS...

CITY           SKY/WX    TMP DP  RH WIND       PRES   REMARKS
GOODLAND KS    CLOUDY    27  25  92 W6        29.95F
HILL CITY KS   PTCLDY    32  29  88 CALM      30.03F
IMPERIAL NEB   CLOUDY    25  21  85 S5        29.95F
MCCOOK NEB     CLOUDY    25  25 100 SW6       29.98F
AKRON CO       CLOUDY    23  15  71 W12       29.93F WCI  12
BURLINGTON CO  CLOUDY    27  24  89 W10       29.95F WCI  17
LIMON CO       CLOUDY    11   9  92 CALM      29.95F
$$

...UNOFFICIAL OBSERVATIONS...

CITY           SKY/WX    TMP DP  RH WIND       PRES   REMARKS
LENORA KS        N/A     32  32 100 CALM        N/A
NORTON KS      CLEAR     28  25  86 SW5       29.98F
SHARON SPRINGS   N/A     28  26  92 SW6         N/A
TRENTON NEB      N/A     28  32 100 CALM        N/A
KIT CARSON CO    N/A     23  21  91 CALM        N/A
YUMA CO        FAIR      12   9  85 W12       29.94F WCI  -2
$$




USA.gov is the U.S. government's official web portal to all federal, state and local government web resources and services.